Regional Weather Roundup
Issued by NWS Cleveland, OH

Home | Current Version | Previous Version | Graphics & Text | Print | Product List | Glossary On
Versions: 1 2 3 4 5 6 7 8 9 10 11 12 13 14 15 16 17 18 19 20 21 22 23 24 25 26 27 28 29 30 31 32 33 34 35 36 37 38 39 40 41 42 43 44 45 46 47 48 49 50
389
ASUS41 KCLE 232212
RWRCLE
OHIO REGIONAL WEATHER ROUNDUP
NATIONAL WEATHER SERVICE WILMINGTON, OH
500 PM EST MON JAN 23 2017

NOTE: "FAIR" INDICATES FEW OR NO CLOUDS BELOW 12,000 FEET WITH NO
SIGNIFICANT WEATHER AND/OR OBSTRUCTIONS TO VISIBILITY.

OHZ001>008-015>018-024>027-034-035-043-044-232300-
   NORTHWEST OHIO

CITY           SKY/WX    TMP DP  RH WIND       PRES   REMARKS
DEFIANCE       LGT RAIN  43  41  93 NE8       29.65R FOG
FINDLAY        CLOUDY    40  37  89 N14       29.62R FOG
TOLEDO EXPRESS CLOUDY    43  43 100 NE6       29.64R FOG
TOLEDO EXEC    CLOUDY    40  40 100 N3        29.66R FOG
LIMA           CLOUDY    39  39 100 N13       29.61R FOG
$$

OHZ009>014-019>023-028>033-038-089-232300-
   NORTHEAST OHIO

CITY           SKY/WX    TMP DP  RH WIND       PRES   REMARKS
CLE-HOPKINS    DRIZZLE   41  37  86 NE13      29.61S
CLE-LAKEFRONT  CLOUDY    38  37  97 NE16      29.59R FOG
CUY CO. ARPT   CLOUDY    43  41  93 NE15      29.61S FOG
LORAIN-ELYRIA  CLOUDY    38  36  92 NE13      29.60S FOG
ASHTABULA      CLOUDY    43  39  86 NE8       29.61R
AKRON-CANTON   LGT RAIN  44  39  82 E9        29.57R
WOOSTER        LGT RAIN  45  39  79 E16       29.57R
MANSFIELD      LGT RAIN  44  43  96 N8        29.55S FOG
YOUNGSTOWN     LGT RAIN  45  41  86 E10       29.59R
$$

OHZ042-051>053-060>062-070>072-077>081-232300-
  SOUTHWEST OHIO

CITY           SKY/WX    TMP DP  RH WIND       PRES   REMARKS
CINC-COVINGTON CLOUDY    47  45  93 NW12      29.58R FOG
CINC-LUNKEN    LGT RAIN  49  45  86 N12       29.59R
HAMILTON       CLOUDY    49  45  86 N8        29.60R
DAYTON         CLOUDY    43  41  93 N13       29.60R
WRIGHT-PAT AFB CLOUDY    45  45 100 N9        29.57R
DAYTON GENERAL CLOUDY    45  43  93 N14       29.57R
WILMINGTON     LGT RAIN  47  47 100 N12       29.55R FOG
$$

OHZ036-037-039>041-045>050-054>059-063>069-073>076-082>088-232300-
  CENTRAL AND SOUTHEAST OHIO

CITY           SKY/WX    TMP DP  RH WIND       PRES   REMARKS
COLUMBUS       LGT RAIN  48  45  89 NE12      29.53R FOG
OSU AIRPORT    LGT RAIN  47  47 100 N9        29.54R FOG
BOLTON FIELD   LGT RAIN  46  46 100 N12       29.54R FOG
RICKENBACK AFB RAIN      46  46  97 NE7       29.53R
NEWARK         CLOUDY    48  41  76 NE9       29.53R
MARION         CLOUDY    43  41  93 N15       29.57R FOG
LANCASTER      CLOUDY    48  44  86 E6        29.53R FOG
ZANESVILLE     LGT RAIN  45  40  82 E8        29.54R
NEW PHILLY     LGT RAIN  44  41  89 E8        29.56S
$$




USA.gov is the U.S. government's official web portal to all federal, state and local government web resources and services.